Carmi, IL

2:43 PM CST on February 19, 2018 (GMT -0600)
Carmi Municipal

Weather History for KCUL - March, 2013

Change the Weather History Date:

Wednesday, March 6, 2013

  Actual Average (KEHR) Record (KEHR)
Temperature  
Mean Temperature 34 °F -  
Max Temperature 36 °F 53 °F 77 °F (1956)
Min Temperature 32 °F 33 °F -7 °F (2015)
Degree Days  
Heating Degree Days 31    
Moisture  
Dew Point 28 °F    
Average Humidity 78    
Maximum Humidity 83    
Minimum Humidity 71    
Precipitation  
Precipitation 0.00 in - - ()
Sea Level Pressure  
Sea Level Pressure 30.24 in    
Wind  
Wind Speed 18 mph (NW)    
Max Wind Speed 28 mph    
Max Gust Speed 38 mph    
Visibility 10 miles    
Events      
Averages and records for this station are not official NWS values.
T = Trace of Precipitation, MM = Missing Value Source: NWS Daily Summary

Daily Weather History Graph

Daily Weather History Graph

Search for Another Location

Airport or City:

Trip Planner

Search our weather history database for the weather conditions in past years. The results will help you decide how hot, cold, wet, or windy it might be!

Date:

Astronomy

Mar. 06, 2013 Rise Set
Actual Time 6:16 AM CST 5:51 PM CST
Civil Twilight 5:50 AM CST 6:17 PM CST
Nautical Twilight 5:19 AM CST 6:48 PM CST
Astronomical Twilight 4:49 AM CST 7:18 PM CST
Moon 2:21 AM CST (3/6) 12:36 PM CST (3/6)
Length of Visible Light 12h 27m
Length of Day
11h 34m
Waning Crescent, 29% of the Moon is Illuminated
Mar 6
Waning Crescent
Mar 11
New
Mar 19
First Quarter
Mar 27
Full
Apr 2
Last Quarter

Hourly Weather History & Observations

Time (CST) Temp. Windchill Dew Point Humidity Pressure Visibility Wind Dir Wind Speed Gust Speed Precip Events Conditions
12:15 AM 34.5 °F 21.5 °F 28.4 °F 78% 29.99 in 10.0 mi WNW 27.6 mph 31.1 mph N/A   Overcast
12:35 AM 34.3 °F 22.0 °F 28.6 °F 79% 29.99 in 10.0 mi WNW 24.2 mph 29.9 mph N/A   Overcast
12:55 AM 34.3 °F 21.5 °F 28.6 °F 79% 30.00 in 10.0 mi WNW 26.5 mph 33.4 mph N/A   Overcast
1:15 AM 34.3 °F 22.6 °F 28.6 °F 79% 30.01 in 10.0 mi WNW 21.9 mph 32.2 mph N/A   Overcast
1:35 AM 34.5 °F 22.8 °F 28.4 °F 78% 30.02 in 10.0 mi WNW 21.9 mph 35.7 mph N/A   Overcast
1:55 AM 34.5 °F 22.8 °F 28.0 °F 77% 30.02 in 10.0 mi WNW 21.9 mph 33.4 mph N/A   Overcast
2:15 AM 34.3 °F 22.0 °F 27.9 °F 77% 30.02 in 10.0 mi NW 24.2 mph 38.0 mph N/A   Overcast
2:35 AM 34.3 °F 23.5 °F 28.0 °F 78% 30.03 in 10.0 mi WNW 18.4 mph 31.1 mph N/A   Overcast
2:55 AM 34.2 °F 22.6 °F 28.0 °F 78% 30.04 in 10.0 mi WNW 20.7 mph 27.6 mph N/A   Overcast
3:15 AM 34.0 °F 21.5 °F 28.2 °F 79% 30.05 in 10.0 mi WNW 24.2 mph 29.9 mph N/A   Overcast
3:35 AM 34.0 °F 22.1 °F 28.2 °F 79% 30.06 in 10.0 mi WNW 21.9 mph 28.8 mph N/A   Overcast
3:55 AM 33.8 °F 21.9 °F 28.4 °F 81% 30.07 in 10.0 mi NW 21.9 mph 28.8 mph N/A   Overcast
4:15 AM 33.8 °F 23.2 °F 28.2 °F 80% 30.08 in 10.0 mi NW 17.3 mph 24.2 mph N/A   Overcast
4:35 AM 33.8 °F 23.2 °F 28.4 °F 81% 30.09 in 10.0 mi WNW 17.3 mph 26.5 mph N/A   Overcast
4:55 AM 33.8 °F 23.2 °F 28.8 °F 82% 30.10 in 10.0 mi NW 17.3 mph 23.0 mph N/A   Overcast
5:55 AM 33.4 °F 22.7 °F 28.4 °F 82% 30.15 in 10.0 mi WNW 17.3 mph 21.9 mph N/A   Overcast
6:15 AM 33.4 °F 21.4 °F 28.2 °F 81% 30.16 in 10.0 mi NW 21.9 mph 26.5 mph N/A   Overcast
6:35 AM 33.3 °F 23.2 °F 28.2 °F 82% 30.17 in 10.0 mi NW 15.0 mph 25.3 mph N/A   Overcast
6:55 AM 33.3 °F 22.5 °F 28.2 °F 82% 30.18 in 10.0 mi NW 17.3 mph 21.9 mph N/A   Overcast
7:15 AM 33.4 °F 22.7 °F 28.4 °F 82% 30.19 in 10.0 mi NW 17.3 mph 25.3 mph N/A   Overcast
7:35 AM 33.8 °F 24.3 °F 28.8 °F 82% 30.20 in 10.0 mi NW 13.8 mph 21.9 mph N/A   Overcast
7:55 AM 34.0 °F 23.8 °F 28.4 °F 80% 30.21 in 10.0 mi NW 16.1 mph 20.7 mph N/A   Overcast
8:15 AM 34.7 °F 24.7 °F 28.8 °F 79% 30.23 in 10.0 mi NW 16.1 mph 23.0 mph N/A   Overcast
8:35 AM 34.7 °F 25.1 °F 28.6 °F 78% 30.24 in 10.0 mi NW 15.0 mph 25.3 mph N/A   Overcast
8:55 AM 34.7 °F 25.5 °F 28.9 °F 79% 30.25 in 10.0 mi NW 13.8 mph - N/A   Overcast
9:15 AM 34.3 °F 22.9 °F 28.4 °F 79% 30.27 in 10.0 mi NW 20.7 mph - N/A   Overcast
9:35 AM 34.7 °F 24.0 °F 28.4 °F 78% 30.27 in 10.0 mi NW 18.4 mph 26.5 mph N/A   Overcast
9:55 AM 34.9 °F 24.2 °F 28.4 °F 77% 30.27 in 10.0 mi NW 18.4 mph 25.3 mph N/A   Overcast
10:15 AM 34.9 °F 23.9 °F 28.0 °F 76% 30.28 in 10.0 mi WNW 19.6 mph 27.6 mph N/A   Overcast
10:35 AM 35.2 °F 25.4 °F 28.0 °F 75% 30.29 in 10.0 mi NW 16.1 mph - N/A   Overcast
10:55 AM 34.9 °F 24.6 °F 28.0 °F 76% 30.30 in 10.0 mi NW 17.3 mph 27.6 mph N/A   Overcast
11:15 AM 35.6 °F 26.2 °F 27.9 °F 73% 30.30 in 10.0 mi NW 15.0 mph 24.2 mph N/A   Overcast
11:35 AM 35.1 °F 24.8 °F 27.9 °F 75% 30.31 in 10.0 mi NW 17.3 mph 24.2 mph N/A   Overcast
11:55 AM 35.8 °F 25.1 °F 27.9 °F 73% 30.31 in 10.0 mi NW 19.6 mph 25.3 mph N/A   Overcast
12:15 PM 35.8 °F 26.1 °F 28.4 °F 75% 30.31 in 10.0 mi NW 16.1 mph 21.9 mph N/A   Overcast
12:35 PM 36.1 °F 26.2 °F 27.7 °F 71% 30.30 in 10.0 mi NNW 17.3 mph 24.2 mph N/A   Overcast
12:55 PM 36.1 °F 27.3 °F 27.9 °F 72% 30.30 in 10.0 mi WNW 13.8 mph 20.7 mph N/A   Overcast
1:15 PM 36.3 °F 26.8 °F 28.2 °F 72% 30.30 in 10.0 mi NW 16.1 mph - N/A   Overcast
1:35 PM 36.0 °F 27.5 °F 28.0 °F 73% 30.30 in 10.0 mi NW 12.7 mph 18.4 mph N/A   Overcast
1:55 PM 36.3 °F 28.0 °F 28.2 °F 72% 30.30 in 10.0 mi NW 12.7 mph - N/A   Overcast
2:15 PM 36.3 °F 26.8 °F 28.2 °F 72% 30.30 in 10.0 mi NW 16.1 mph - N/A   Overcast
2:35 PM 36.5 °F 28.2 °F 28.8 °F 74% 30.30 in 10.0 mi NW 12.7 mph - N/A   Overcast
2:55 PM 36.3 °F 28.0 °F 28.6 °F 74% 30.30 in 10.0 mi NW 12.7 mph 18.4 mph N/A   Overcast
3:15 PM 36.5 °F 27.8 °F 28.4 °F 72% 30.31 in 10.0 mi NNW 13.8 mph - N/A   Overcast
3:35 PM 36.5 °F 27.4 °F 28.2 °F 72% 30.31 in 10.0 mi NW 15.0 mph - N/A   Overcast
3:55 PM 36.5 °F 28.2 °F 28.4 °F 72% 30.31 in 10.0 mi NNW 12.7 mph - N/A   Overcast
4:15 PM 36.0 °F 28.5 °F 28.2 °F 73% 30.32 in 10.0 mi NNW 10.4 mph - N/A   Overcast
4:35 PM 35.8 °F 27.3 °F 28.2 °F 74% 30.32 in 10.0 mi NW 12.7 mph - N/A   Overcast
4:55 PM 35.6 °F 29.2 °F 28.4 °F 75% 30.32 in 10.0 mi NW 8.1 mph - N/A   Overcast
5:15 PM 35.6 °F 28.6 °F 28.9 °F 77% 30.33 in 10.0 mi NW 9.2 mph - N/A   Overcast
5:35 PM 35.2 °F 26.6 °F 28.0 °F 75% 30.33 in 10.0 mi WNW 12.7 mph 16.1 mph N/A   Overcast
5:55 PM 35.1 °F 27.4 °F 28.4 °F 77% 30.34 in 10.0 mi WNW 10.4 mph - N/A   Overcast
6:15 PM 34.9 °F 27.7 °F 28.2 °F 77% 30.34 in 10.0 mi WNW 9.2 mph - N/A   Overcast
6:35 PM 34.9 °F 27.7 °F 28.2 °F 77% 30.34 in 10.0 mi NW 9.2 mph - N/A   Overcast
6:55 PM 34.7 °F 28.8 °F 28.4 °F 78% 30.35 in 10.0 mi NNW 6.9 mph - N/A   Overcast
7:15 PM 34.7 °F 30.6 °F 28.6 °F 78% 30.35 in 10.0 mi NW 4.6 mph - N/A   Overcast
7:35 PM 34.7 °F 29.6 °F 28.9 °F 79% 30.34 in 10.0 mi NW 5.8 mph - N/A   Overcast
7:55 PM 34.0 °F 28.8 °F 28.9 °F 82% 30.34 in 10.0 mi North 5.8 mph - N/A   Overcast
8:15 PM 33.8 °F 28.6 °F 28.4 °F 81% 30.34 in 10.0 mi North 5.8 mph - N/A   Overcast
8:35 PM 33.8 °F 28.6 °F 28.4 °F 81% 30.34 in 10.0 mi North 5.8 mph - N/A   Overcast
8:55 PM 33.6 °F 27.5 °F 28.0 °F 80% 30.35 in 10.0 mi North 6.9 mph - N/A   Overcast
9:15 PM 33.4 °F 29.1 °F 28.8 °F 83% 30.35 in 10.0 mi NNW 4.6 mph - N/A   Overcast
9:35 PM 33.4 °F 29.1 °F 28.4 °F 82% 30.35 in 10.0 mi North 4.6 mph - N/A   Overcast
9:55 PM 33.4 °F 30.4 °F 28.6 °F 82% 30.35 in 10.0 mi NNW 3.5 mph - N/A   Overcast
10:15 PM 33.3 °F 26.4 °F 27.9 °F 81% 30.34 in 10.0 mi North 8.1 mph - N/A   Overcast
10:35 PM 33.1 °F 24.9 °F 27.7 °F 81% 30.34 in 10.0 mi North 10.4 mph - N/A   Overcast
10:55 PM 32.9 °F 26.7 °F 27.0 °F 79% 30.34 in 10.0 mi North 6.9 mph - N/A   Overcast
11:15 PM 32.7 °F 26.4 °F 27.0 °F 79% 30.35 in 10.0 mi North 6.9 mph - N/A   Overcast
11:35 PM 32.4 °F 26.0 °F 26.8 °F 80% 30.35 in 10.0 mi North 6.9 mph - N/A   Overcast
11:55 PM 32.4 °F 27.9 °F 26.1 °F 78% 30.35 in 10.0 mi NNW 4.6 mph - N/A   Overcast